Theta_e
310 310 312 316 315 312 313 313 313 315 315 313 313 313 312 310 308 312 309 307 311 311 314 315 314 314 315 316 316 317 315 315 315 315 316 318 319 317 317 319 318 319 320 319 320
308 308 308 312 317 314 313 315 314 313 315 315 314 314 313 310 311 310 308 304 307 312 315 314 315 314 316 315 316 314 315 315 316 316 317 318 318 318 317 318 319 319 319 318 319
306 306 305 308 313 316 313 314 314 314 314 315 315 315 314 315 309 309 307 303 310 311 313 314 314 315 316 316 315 314 317 316 315 316 316 317 317 317 318 319 320 319 320 319 319
306 305 302 304 309 315 316 314 316 315 315 315 316 315 316 311 309 313 313 304 307 314 313 314 315 316 316 316 314 316 314 314 316 315 315 316 316 317 316 318 318 317 317 317 319
304 304 302 301 307 309 315 316 317 315 316 315 316 316 313 310 310 314 309 311 310 316 313 314 315 315 316 316 316 316 316 315 315 314 314 314 314 316 317 317 317 317 315 316 317
302 304 303 301 304 307 312 314 316 316 316 316 316 316 312 308 309 316 317 317 314 314 314 314 315 315 315 315 316 316 316 316 315 315 315 315 316 316 318 318 318 316 318 318 318
301 302 303 301 302 304 307 308 313 316 316 316 317 315 314 307 311 315 314 313 314 313 314 314 314 314 315 315 315 316 316 317 317 317 317 316 319 318 319 318 318 319 319 318 318
300 300 303 300 301 302 305 307 309 314 315 316 316 314 317 309 311 313 312 312 311 312 313 314 314 315 316 315 316 316 316 317 318 317 316 316 321 321 318 319 321 321 321 321 321
301 300 302 300 299 298 303 306 310 312 314 315 315 315 317 307 310 311 312 311 312 313 313 313 315 315 315 317 316 318 319 317 319 317 318 317 323 321 318 320 321 322 321 320 319
300 299 302 299 298 298 301 306 310 311 315 313 311 316 312 310 310 311 312 312 313 314 314 315 316 315 315 315 322 319 317 318 320 320 319 321 321 321 321 321 320 319 318 317 316
299 300 302 299 298 298 302 307 313 314 312 317 316 314 312 308 310 312 312 313 313 313 313 315 315 317 314 314 315 316 318 318 319 317 319 321 321 320 320 317 317 316 316 315 315
299 300 300 298 297 298 300 307 309 307 316 313 312 310 309 309 311 312 312 313 314 313 313 315 314 313 315 315 315 316 319 320 318 316 316 319 320 320 317 314 312 314 314 313 312
300 299 298 297 296 297 301 305 307 306 312 312 312 311 309 308 310 313 313 313 314 314 314 310 312 313 314 314 314 314 316 319 316 316 317 319 325 319 316 313 311 311 311 311 311
298 297 296 296 295 299 300 303 307 307 315 312 314 314 309 309 311 311 312 312 312 314 313 312 312 313 313 313 313 313 314 315 315 316 322 319 341 326 319 316 312 310 310 310 310
296 295 296 296 299 299 300 303 307 307 322 312 312 310 309 310 311 312 310 311 312 313 312 312 313 313 313 312 314 314 314 315 316 318 321 322 329 329 316 318 312 310 308 307 307
295 295 295 295 299 298 300 306 306 312 321 315 311 313 312 312 311 312 312 309 311 312 311 312 310 313 314 312 312 314 316 317 318 320 328 325 326 335 317 310 310 308 306 305 305
296 292 295 297 300 297 301 305 311 316 306 314 314 314 314 314 313 313 312 310 310 313 313 311 313 311 311 314 313 315 317 326 327 327 326 314 319 320 309 307 306 305 305 303 303
293 295 295 295 296 297 301 308 315 310 310 311 313 315 318 316 314 313 312 309 310 309 309 311 308 312 312 315 316 316 318 326 329 327 323 313 320 317 306 304 304 303 302 302 301
293 295 296 295 297 299 305 308 310 307 310 312 314 318 318 316 316 315 313 311 308 310 310 306 309 309 310 311 314 316 317 314 314 312 316 317 313 307 306 304 303 302 301 300 299
295 295 296 297 299 301 307 308 306 306 309 311 312 314 319 318 317 317 316 314 312 311 312 312 312 310 309 310 311 314 314 317 318 322 319 314 313 316 308 306 303 301 300 299 298
294 296 294 298 300 301 309 305 305 305 307 312 312 312 312 316 315 317 316 314 313 312 313 316 316 311 310 313 312 313 314 313 314 315 312 310 312 307 306 303 302 299 298 297 297
295 298 293 297 303 301 306 303 301 302 305 310 311 313 312 315 317 317 316 313 311 312 315 316 319 316 310 309 309 311 311 313 311 314 312 312 313 304 302 300 300 298 297 296 295
297 297 294 295 303 302 300 299 298 302 302 307 309 310 309 312 315 313 312 307 309 313 314 316 317 322 318 314 311 312 311 312 311 311 313 313 312 303 300 300 298 298 296 295 295
296 298 297 296 292 302 301 300 301 298 300 302 304 308 309 309 309 311 309 306 305 307 309 313 315 319 322 318 315 312 312 311 312 315 312 312 310 304 302 300 298 297 296 295 294
294 291 290 300 297 297 298 298 298 300 298 299 304 305 308 308 306 307 307 308 304 304 307 310 316 315 313 312 313 313 311 311 312 312 314 314 312 306 303 300 298 296 295 294 293
295 294 293 293 293 297 297 295 296 294 296 300 300 301 304 302 301 305 305 304 303 304 307 308 313 313 312 312 313 314 312 313 312 312 312 310 306 304 300 298 297 296 295 293 291
288 288 295 293 295 297 294 295 294 296 294 295 298 297 295 293 294 294 295 296 297 301 306 309 311 313 315 309 312 315 309 308 306 304 306 314 305 299 299 298 296 294 293 292 290
Wind_Speed
14 14 13 5 15 11 12 9 7 6 5 5 3 2 4 4 3 5 8 5 8 14 14 11 8 9 11 7 5 3 5 9 11 9 2 4 3 3 2 6 3 3 1 5 10
13 14 13 15 6 15 14 13 11 9 7 5 5 3 2 2 4 9 8 10 14 20 18 19 13 12 7 6 5 8 7 9 2 5 3 2 3 1 2 5 6 7 6 6 8
13 12 12 13 13 19 16 16 14 13 10 8 7 4 4 3 3 7 16 13 14 19 12 13 14 13 8 4 7 5 5 5 3 4 3 5 5 2 5 8 10 7 5 8 8
12 11 13 12 14 2 18 18 14 15 14 10 9 5 6 8 6 4 7 16 15 14 11 14 11 9 7 7 8 5 11 7 2 2 3 5 6 7 8 14 9 7 8 5 9
11 11 11 13 10 11 7 16 12 14 12 12 10 8 5 7 4 2 7 18 14 15 18 14 14 9 9 11 7 14 8 5 9 4 6 7 11 13 15 15 14 10 8 10 11
14 9 12 12 11 8 8 6 15 13 11 10 10 7 7 10 2 4 10 16 15 17 16 13 9 8 9 4 11 2 10 10 5 7 6 6 12 2 10 3 4 2 7 7 7
17 11 11 11 10 10 3 6 9 13 11 9 8 5 5 1 3 7 10 11 15 10 12 9 5 9 6 5 3 4 7 9 9 5 3 3 9 12 16 4 6 4 5 4 7
14 16 11 8 8 10 6 9 1 12 10 9 7 4 2 2 5 9 8 9 10 6 9 7 7 5 3 3 4 5 6 7 6 3 2 3 7 7 2 1 5 7 5 4 5
12 16 12 7 6 8 9 5 7 9 9 8 5 6 4 7 7 11 12 11 9 7 5 5 7 4 4 5 4 5 5 9 5 3 2 7 4 5 2 9 11 10 8 7 7
13 17 13 7 2 5 8 2 8 8 10 6 1 4 7 6 8 11 7 17 8 12 7 7 6 8 8 8 5 6 5 5 5 3 3 6 12 12 10 11 8 7 7 8 10
10 14 14 9 4 2 6 3 4 3 3 4 4 1 8 10 8 7 11 10 11 13 10 12 9 12 16 14 4 2 4 5 2 3 4 7 10 13 11 7 9 10 11 12 13
9 13 14 8 5 0 6 4 2 3 4 1 4 4 7 9 6 7 12 8 11 13 9 5 13 10 5 8 10 5 3 3 1 0 3 8 12 3 8 9 12 13 14 15 15
11 15 11 6 3 2 4 4 4 3 3 2 4 4 6 5 6 12 9 7 12 12 14 8 1 9 11 8 8 9 9 3 4 4 6 8 7 9 9 12 14 15 15 16 16
8 7 7 7 4 6 5 10 5 5 3 5 7 4 5 5 5 3 9 3 5 13 13 6 4 11 13 12 12 11 9 11 8 3 5 2 2 2 7 8 15 15 15 15 17
3 3 5 9 4 6 1 10 3 5 7 11 5 2 3 4 15 6 2 3 9 9 6 4 7 9 13 12 11 3 4 9 8 9 6 6 3 3 3 2 12 15 15 16 16
1 3 5 5 4 3 5 11 5 2 5 5 3 9 9 7 3 8 6 4 3 5 3 5 1 4 2 3 11 10 7 6 3 3 4 4 4 5 2 4 9 12 14 15 15
6 4 5 2 4 3 11 5 2 4 3 5 5 8 13 7 7 14 14 9 7 6 9 4 4 2 2 8 5 7 9 2 4 4 4 2 4 5 4 7 8 10 12 13 14
7 5 7 6 2 5 6 6 6 2 2 7 9 15 5 8 3 12 16 11 5 4 12 9 5 9 9 5 6 13 9 4 5 4 3 2 6 3 7 6 7 9 10 12 14
1 2 3 7 3 4 3 4 1 5 6 12 15 5 5 8 8 6 12 11 11 7 2 9 6 2 1 1 2 6 6 3 4 1 1 5 4 6 7 8 9 11 11 12 13
1 2 4 5 4 2 3 6 1 3 5 16 6 8 5 7 8 8 12 7 6 8 4 1 4 2 2 2 2 2 3 3 2 3 5 4 3 2 8 6 8 10 11 11 11
2 0 8 4 4 1 6 3 4 2 5 1 7 7 7 9 6 12 15 4 4 9 4 6 2 3 3 8 10 4 3 3 2 2 2 2 3 5 8 6 7 9 10 11 12
1 1 9 2 2 2 4 3 3 3 4 6 5 8 8 8 3 3 3 5 5 3 8 4 1 3 4 3 4 4 8 10 4 5 2 2 2 4 8 7 7 8 8 10 11
2 2 6 2 3 2 3 5 7 5 6 4 3 4 6 4 4 3 4 5 7 3 5 8 2 4 1 2 1 5 8 5 1 2 5 3 3 6 7 8 6 7 8 8 10
1 2 3 3 1 4 8 3 4 5 5 5 4 2 7 5 6 4 3 5 3 6 10 3 2 2 1 4 1 5 8 9 10 4 4 7 6 11 9 8 7 7 7 8 9
3 2 1 3 5 8 5 3 3 5 6 8 4 7 4 5 3 3 3 3 6 9 4 3 2 2 2 3 4 4 2 7 13 12 6 4 4 11 10 8 7 5 5 6 8
2 3 3 4 2 6 6 4 5 5 6 4 5 6 7 5 3 5 4 3 3 4 3 1 2 2 2 3 3 2 2 1 1 1 5 6 4 8 9 9 7 5 5 7 8
2 2 2 5 3 2 3 4 3 5 9 8 8 12 14 7 8 9 9 8 5 2 2 1 3 2 3 1 3 4 3 1 3 4 2 5 4 8 9 7 5 5 6 6 7
Wind_Direction
319 324 1 318 228 219 223 218 211 195 176 183 194 224 227 239 233 189 227 188 206 183 164 158 145 189 192 194 228 254 238 224 217 213 209 129 217 145 358 268 195 208 244 114 133
305 314 329 353 238 224 217 223 217 215 192 175 179 219 252 255 235 236 233 216 195 161 161 168 167 181 191 192 197 221 233 250 290 260 275 157 259 193 235 227 241 231 204 171 158
289 307 311 332 355 217 221 223 219 213 209 192 193 197 225 227 229 233 223 201 167 175 191 186 162 181 194 164 192 193 237 261 262 281 311 303 265 243 269 259 243 241 264 177 200
264 292 299 304 343 191 225 229 234 217 214 202 192 208 257 186 208 127 199 188 192 173 182 174 177 174 196 195 198 248 231 256 333 345 319 279 327 263 255 259 304 290 300 230 222
281 269 288 294 307 14 235 221 214 208 206 196 190 195 160 215 251 321 196 186 185 179 186 187 179 177 191 208 180 229 237 244 255 272 277 300 270 281 275 267 274 262 246 257 259
279 271 277 288 284 330 107 97 189 181 184 196 191 188 223 225 142 139 138 149 169 177 192 199 195 179 197 206 221 335 255 255 235 239 231 265 278 33 261 191 269 268 261 256 259
259 304 254 273 273 288 290 32 156 179 186 189 184 191 228 172 150 167 157 157 173 176 182 183 201 179 152 179 228 273 268 223 222 231 240 279 263 226 255 228 280 290 256 265 253
261 275 230 249 273 273 290 276 180 178 178 187 179 199 241 156 158 160 168 132 159 166 196 168 171 171 245 132 170 227 240 240 97 173 163 237 259 124 76 165 345 318 296 247 247
232 255 211 204 270 288 254 271 230 178 184 167 185 236 184 144 169 162 170 149 143 139 130 151 169 175 171 199 196 202 266 214 150 165 222 222 275 78 79 320 323 323 329 341 349
232 234 189 174 224 319 230 216 191 162 154 140 183 218 159 183 152 149 158 153 139 141 123 183 186 189 204 201 209 208 229 243 234 92 226 260 268 294 318 317 328 11 20 27 33
224 219 199 186 211 334 197 150 197 187 171 209 188 44 131 127 127 154 145 147 153 170 170 184 179 200 204 212 112 107 230 253 44 53 312 272 285 299 315 41 41 40 31 29 22
213 217 169 174 213 188 188 270 27 87 151 234 143 101 135 156 123 149 165 156 175 181 150 163 224 207 170 177 199 213 160 189 169 171 302 300 292 360 102 78 53 35 32 22 16
153 152 149 171 204 214 178 261 112 63 87 142 162 161 155 200 134 159 186 161 186 165 188 197 76 169 190 195 209 231 234 236 292 326 243 286 252 156 136 76 53 42 31 22 17
127 146 166 166 190 176 189 207 89 67 126 171 194 145 150 176 102 115 171 151 177 189 184 229 109 189 193 204 203 220 217 235 239 261 260 314 267 206 159 105 43 30 25 17 15
130 156 181 190 126 187 116 164 59 46 189 149 158 125 144 183 128 163 171 202 160 153 188 136 170 172 200 201 191 193 153 197 212 224 288 206 251 132 157 180 20 19 19 17 17
296 224 188 173 175 88 151 121 50 176 190 159 120 170 147 152 90 134 154 61 87 130 119 94 72 188 116 97 197 137 126 121 167 218 244 187 241 147 46 355 355 14 19 20 20
36 131 146 130 123 124 158 99 159 253 206 137 145 171 148 147 126 163 168 163 161 157 183 122 155 140 176 114 128 190 177 138 194 201 234 131 213 57 82 37 21 12 21 23 29
39 89 89 50 56 143 131 141 219 38 198 148 147 154 153 137 142 168 168 181 207 242 159 174 202 187 178 227 172 198 216 224 211 194 158 142 220 111 89 66 55 47 38 33 33
11 65 65 1 53 158 207 171 159 157 165 152 145 140 146 140 138 146 188 190 193 211 235 185 159 102 221 240 168 172 222 21 108 98 269 177 112 132 131 76 55 48 43 37 34
12 138 50 12 48 261 174 92 133 23 283 153 145 185 144 142 139 158 167 207 210 203 262 95 122 209 101 225 141 277 147 173 230 193 215 176 232 80 195 55 52 44 39 36 37
283 179 357 30 66 330 168 110 144 34 335 355 139 158 175 156 167 179 175 137 160 208 207 321 318 124 169 211 188 165 188 226 253 291 249 196 131 16 97 77 67 50 41 36 36
356 72 353 40 164 317 114 101 22 3 2 68 37 63 154 125 106 126 122 43 338 218 179 163 191 164 186 40 340 301 238 204 221 189 249 1 126 93 100 88 84 75 54 42 39
74 63 31 2 174 127 81 75 44 28 32 50 78 47 64 81 107 73 86 20 8 57 169 164 176 138 135 198 168 231 208 238 224 334 196 196 130 134 126 113 81 76 64 53 47
117 129 51 61 303 136 115 64 129 38 70 52 68 113 117 77 54 116 106 36 21 20 16 32 155 297 281 47 356 187 203 209 222 239 231 235 142 181 166 141 119 91 65 48 39
11 86 335 89 42 91 88 73 68 45 35 18 65 63 108 109 98 96 76 130 48 0 36 59 125 104 69 57 39 60 132 205 221 233 255 332 74 161 160 142 112 97 71 57 43
121 149 120 81 358 58 24 42 99 104 6 22 74 62 67 93 0 146 127 37 67 21 69 337 112 108 79 76 53 98 87 63 9 331 266 152 115 101 110 128 122 93 76 56 46
82 92 101 34 42 61 22 124 122 138 46 67 88 92 76 92 74 78 78 85 83 79 89 66 139 186 121 60 135 228 164 148 107 63 345 227 89 141 144 129 116 98 72 54 32